{"data":{"norad_id":53083,"epoch":"2026-09-19T19:03:19.497024Z","epoch_age_seconds":133307,"freshness":"FRESH","line1":"1 53083U 22077AS  26262.79397566  .00000619  00000+0  21494-4 0  9996","line2":"2 53083  97.2851  78.4531 0001357  90.0868 270.0531 15.33434731230241","mean_motion":15.33434731,"eccentricity":0.0001357,"inclination_deg":97.2851,"raan_deg":78.4531,"arg_perigee_deg":90.0868,"mean_anomaly_deg":270.0531,"bstar":2.1494e-5,"rev_number":23024,"period_min":93.906833521433,"perigee_km":464.645036422,"apogee_km":466.50241951357,"semimajor_km":6843.7107279678,"source":"CELESTRAK","updated_at":"2026-09-20T09:00:40.177185Z"}}